Location: Lafig�re
(44.4503°N, 4.0357°E)
Time: 14:53:25
(UTC+00:00)

Vanguard 2 Rocket - Pass Details

Date: 01 February 2021
Orbit: 554 x 3325 km, 32.9° (Epoch: 06 March)

Event Time Altitude Azimuth Distance (km) Brightness Sun altitude
Rises 11:54:24 0° 229° (SW) 7,279 12.0 28.6°
Reaches altitude 10° 11:59:43 10° 224° (SW) 6,276 11.9 28.6°
Maximum altitude 12:17:32 43° 162° (SSE) 3,628 11.4 28.4°
Drops below altitude 10° 12:30:23 10° 97° (E) 4,632 10.6 28.1°
Sets 12:33:36 0° 91° (E) 5,299 10.7 28.1°
